05h07 EDT


 

Suivi/Infos de l'aéroport


-ou-


 

Suivi des vols en temps réel9Y-TTC ✈ 08-05-2013 ✈ TTPP / POS - TTCP / TAB

Thumbnail
9Y-TTC / BWA1506
Unknown Owner · Trinidad & Tobago
Piarco Int'l ( – info)
Port-d'Espagne TT
Crown Point ( – info)
Scarborough, Tobago TT
Prévu: 08h10 AST
Prévu: 08h15 AST
Durée: 16 minutes
mercredi, 8 mai 2013
Statut Arrivé il y a plus d'un an. (journal de vol & graphique)
Avion Aerospatiale ATR-42-300 (bi-turbopropulseur) (AT43 – photos)
Vitesse Plan de vol: 532 kts (graphique)
Distance En ligne droite 83 km
Une partie au moins de ce vol se déroule hors de la zone de services primaire de FlightAware. Pour en savoir plus sur la couverture et la zone de services de FlightAware.
JOURNAL DE L'ACTIVITE
Vous voulez une recherche complète sur l'historique de 9Y-TTC depuis 1998? Achetez maintenant. Recevez-le dans l'heure.
Date Avion Provenance Destination Départ Arrivée Durée
27-08-2014 AT43Int'l Grantley-Adams ()Piarco Int'l () 00h06 AST 00h59 AST 0:53
26-08-2014 AT43Piarco Int'l ()Int'l Grantley-Adams () 22h19 AST 23h14 AST 0:55
26-08-2014 AT43Point Salines Int'l ()Piarco Int'l () 20h31 AST 21h03 AST 0:32
26-08-2014 AT43Piarco Int'l ()Point Salines Int'l () 19h09 AST 19h43 AST 0:34
26-08-2014 AT43Crown Point ()Piarco Int'l () 13h39 AST 13h59 AST 0:20
26-08-2014 AT43Piarco Int'l ()Crown Point () 12h36 AST 12h54 AST 0:17
26-08-2014 AT43Crown Point ()Piarco Int'l () 11h23 AST 11h45 AST 0:22
26-08-2014 AT43Piarco Int'l ()Crown Point () 10h30 AST 10h45 AST 0:14
26-08-2014 AT43Crown Point ()Piarco Int'l () 09h04 AST 09h26 AST 0:22
26-08-2014 AT43Piarco Int'l ()Crown Point () 08h10 AST 08h25 AST 0:14
26-08-2014 AT43Crown Point ()Piarco Int'l () 07h10 AST 07h29 AST 0:19
26-08-2014 AT43Piarco Int'l ()Crown Point () 06h10 AST 06h27 AST 0:16
25-08-2014 AT43Crown Point ()Piarco Int'l () 23h02 AST 23h21 AST 0:19
25-08-2014 AT43Piarco Int'l ()Crown Point () 21h54 AST 22h13 AST 0:18
25-08-2014 AT43Point Salines Int'l ()Piarco Int'l () 20h36 AST 20h57 AST 0:20
25-08-2014 AT43Piarco Int'l ()Point Salines Int'l () 19h14 AST 19h47 AST 0:32
25-08-2014 AT43Crown Point ()Piarco Int'l () 17h52 AST 18h14 AST 0:22
25-08-2014 AT43Piarco Int'l ()Crown Point () 16h54 AST 17h11 AST 0:16
25-08-2014 AT43Crown Point ()Piarco Int'l () 13h48 AST 14h07 AST 0:19
25-08-2014 AT43Piarco Int'l ()Crown Point () 12h53 AST 13h07 AST 0:13
25-08-2014 AT43Int'l Maiquetía ~ Simón Bolívar ()Piarco Int'l () 09h50 VET 11h50 AST 1:30
25-08-2014 AT43Piarco Int'l ()Int'l Maiquetía ~ Simón Bolívar () 07h38 AST 08h43 VET 1:35
24-08-2014 AT43Crown Point ()Piarco Int'l () 21h59 AST 22h31 AST 0:32
24-08-2014 AT43Piarco Int'l ()Crown Point () 21h12 AST 21h26 AST 0:13
24-08-2014 AT43Crown Point ()Piarco Int'l () 20h11 AST 20h31 AST 0:20
24-08-2014 AT43Piarco Int'l ()Crown Point () 19h15 AST 19h29 AST 0:13
24-08-2014 AT43Crown Point ()Piarco Int'l () 18h01 AST 18h26 AST 0:25
24-08-2014 AT43Piarco Int'l ()Crown Point () 17h15 AST 17h32 AST 0:16
24-08-2014 AT43Crown Point ()Piarco Int'l () 13h37 AST 13h54 AST 0:17
24-08-2014 AT43Piarco Int'l ()Crown Point () 12h31 AST 12h48 AST 0:17
24-08-2014 AT43Int'l Maiquetía ~ Simón Bolívar ()Piarco Int'l () 09h15 VET 11h11 AST 1:26
24-08-2014 AT43Piarco Int'l ()Int'l Maiquetía ~ Simón Bolívar () 06h59 AST 07h58 VET 1:29
23-08-2014 AT43Crown Point ()Piarco Int'l () 20h16 AST 20h32 AST 0:16
23-08-2014 AT43Piarco Int'l ()Crown Point () 19h19 AST 19h38 AST 0:19
23-08-2014 AT43Crown Point ()Piarco Int'l () 18h14 AST 18h34 AST 0:20
23-08-2014 AT43Piarco Int'l ()Crown Point () 17h10 AST 17h27 AST 0:17
23-08-2014 AT43Crown Point ()Piarco Int'l () 16h02 AST 16h21 AST 0:19
23-08-2014 AT43Piarco Int'l ()Crown Point () 15h03 AST 15h19 AST 0:16
23-08-2014 AT43Crown Point ()Piarco Int'l () 13h35 AST 13h55 AST 0:20
23-08-2014 AT43Piarco Int'l ()Crown Point () 12h36 AST 12h53 AST 0:17
23-08-2014 AT43Crown Point ()Piarco Int'l () 11h18 AST 11h41 AST 0:23
23-08-2014 AT43Piarco Int'l ()Crown Point () 10h30 AST 10h48 AST 0:18
23-08-2014 AT43Crown Point ()Piarco Int'l () 09h01 AST 09h20 AST 0:19
23-08-2014 AT43Piarco Int'l ()Crown Point () 08h13 AST 08h27 AST 0:13
23-08-2014 AT43Crown Point ()Piarco Int'l () 07h15 AST 07h33 AST 0:18
23-08-2014 AT43Piarco Int'l ()Crown Point () 06h16 AST 06h34 AST 0:18
22-08-2014 AT43Crown Point ()Piarco Int'l () 23h15 AST 23h43 AST 0:28
22-08-2014 AT43Piarco Int'l ()Crown Point () 22h20 AST 22h35 AST 0:14
22-08-2014 AT43Point Salines Int'l ()Piarco Int'l () 19h33 AST 21h02 AST 1:29
22-08-2014 AT43Piarco Int'l ()Point Salines Int'l () 19h21 AST 19h51 AST 0:29
22-08-2014 AT43Crown Point ()Piarco Int'l () 18h02 AST 18h20 AST 0:18
22-08-2014 AT43Piarco Int'l ()Crown Point () 17h11 AST 17h23 AST 0:11
22-08-2014 AT43Crown Point ()Piarco Int'l () 13h12 AST 14h31 AST 1:19
22-08-2014 AT43Piarco Int'l ()Crown Point () 13h04 AST 13h17 AST 0:12
22-08-2014 AT43Int'l Maiquetía ~ Simón Bolívar ()Piarco Int'l () 10h07 VET 12h05 AST 1:28
22-08-2014 AT43Piarco Int'l ()Int'l Maiquetía ~ Simón Bolívar () 08h07 AST 09h06 VET 1:29
21-08-2014 AT43Int'l Grantley-Adams ()Piarco Int'l () 21h17 AST 22h14 AST 0:57
21-08-2014 AT43Piarco Int'l ()Int'l Grantley-Adams () 19h49 AST 20h39 AST 0:49
21-08-2014 AT43George F. L. Charles ()Piarco Int'l () 15h34 AST 16h34 AST 1:00
21-08-2014 AT43Piarco Int'l ()George F. L. Charles () 13h56 AST 14h54 AST 0:58
21-08-2014 AT43Crown Point ()Piarco Int'l () 12h36 AST 12h52 AST 0:16
21-08-2014 AT43Piarco Int'l ()Crown Point () 11h36 AST 11h54 AST 0:17
21-08-2014 AT43Crown Point ()Piarco Int'l () 10h40 AST 10h56 AST 0:16
21-08-2014 AT43Piarco Int'l ()Crown Point () 09h48 AST 10h01 AST 0:12
21-08-2014 AT43Crown Point ()Piarco Int'l () 08h44 AST 08h55 AST 0:11
21-08-2014 AT43Piarco Int'l ()Crown Point () 07h48 AST 08h01 AST 0:12
21-08-2014 AT43Crown Point ()Piarco Int'l () 06h46 AST 07h04 AST 0:18
21-08-2014 AT43Piarco Int'l ()Crown Point () 05h55 AST 06h11 AST 0:15
20-08-2014 AT43Int'l Grantley-Adams ()Piarco Int'l () 20h55 AST 21h46 AST 0:51
20-08-2014 AT43Piarco Int'l ()Int'l Grantley-Adams () 19h20 AST 20h14 AST 0:54
20-08-2014 AT43George F. L. Charles ()Piarco Int'l () 15h44 AST 16h42 AST 0:58
20-08-2014 AT43Piarco Int'l ()George F. L. Charles () 14h12 AST 15h12 AST 1:00
20-08-2014 AT43Crown Point ()Piarco Int'l () 12h43 AST 13h02 AST 0:19
20-08-2014 AT43Piarco Int'l ()Crown Point () 11h49 AST 12h08 AST 0:19
20-08-2014 AT43Crown Point ()Piarco Int'l () 10h45 AST 11h04 AST 0:19
20-08-2014 AT43Piarco Int'l ()Crown Point () 09h52 AST 10h09 AST 0:17
20-08-2014 AT43Crown Point ()Piarco Int'l () 08h47 AST 09h00 AST 0:13
20-08-2014 AT43Piarco Int'l ()Crown Point () 07h47 AST 08h02 AST 0:14
20-08-2014 AT43Crown Point ()Piarco Int'l () 06h43 AST 07h00 AST 0:17
20-08-2014 AT43Piarco Int'l ()Crown Point () 05h50 AST 06h07 AST 0:17
20-08-2014 AT43Crown Point ()Piarco Int'l () 01h08 AST 01h24 AST 0:16
19-08-2014 AT43Crown Point ()Piarco Int'l () 23h39 AST 23h54 AST 0:15
19-08-2014 AT43Point Salines Int'l ()Piarco Int'l () 21h24 AST 21h53 AST 0:29
19-08-2014 AT43Piarco Int'l ()Point Salines Int'l () 19h59 AST 20h29 AST 0:29
19-08-2014 AT43Crown Point ()Piarco Int'l () 18h41 AST 19h00 AST 0:19
19-08-2014 AT43Piarco Int'l ()Crown Point () 17h42 AST 17h59 AST 0:17
19-08-2014 AT43Crown Point ()Piarco Int'l () 16h33 AST 16h51 AST 0:18
19-08-2014 AT43Piarco Int'l ()Crown Point () 15h24 AST 15h42 AST 0:18
19-08-2014 AT43Crown Point ()Piarco Int'l () 14h05 AST 14h26 AST 0:21
19-08-2014 AT43Piarco Int'l ()Crown Point () 12h56 AST 13h15 AST 0:19
19-08-2014 AT43Int'l Maiquetía ~ Simón Bolívar ()Piarco Int'l () 09h59 VET 11h59 AST 1:30
19-08-2014 AT43Piarco Int'l ()Int'l Maiquetía ~ Simón Bolívar () 07h46 AST 08h46 VET 1:29
18-08-2014 AT43Crown Point ()Piarco Int'l () 22h45 AST 23h02 AST 0:17
18-08-2014 AT43Piarco Int'l ()Crown Point () 21h48 AST 22h06 AST 0:18
18-08-2014 AT43Crown Point ()Piarco Int'l () 20h18 AST 20h39 AST 0:21
18-08-2014 AT43Piarco Int'l ()Crown Point () 19h19 AST 19h38 AST 0:19
18-08-2014 AT43Crown Point ()Piarco Int'l () 18h10 AST 18h28 AST 0:18
18-08-2014 AT43Piarco Int'l ()Crown Point () 17h03 AST 17h20 AST 0:17
18-08-2014 AT43Crown Point ()Piarco Int'l () 15h58 AST 16h17 AST 0:19
Les membres inscrits (l'inscription est gratuite et facile!) voient 4 months d'historique. S'inscrire